This demonstration page uses our WeatherBlox Daily Observations layout. Learn more.

39.29038, -76.61219

Hourly Observations for May 12, 2019

Temp ( °F °C ) Dew Point ( °F °C ) Humidity (%) Winds ( mph kmh ) Pressure ( in mb ) Visibility ( mi km ) Precip ( " mm )
12:54 am 00:54 undefined 59 15 57 13.9 93 93 undefined N/A 29.89 1012 N/A 0.08 2.032
1:54 am 01:54 undefined 59 15 56 13.3 90 90 undefined N/A 29.87 1012 N/A 0.09 2.286
2:54 am 02:54 undefined 58 14.4 56 13.3 93 93 undefined N/A 29.84 1010 N/A 0.04 1.016
3:54 am 03:54 undefined 57 13.9 55 12.8 93 93 undefined N/A 29.82 1010 N/A 0.06 1.524
4:54 am 04:54 undefined 55 12.8 53 11.7 93 93 undefined N/A 29.81 1010 N/A 0.07 1.778
5:54 am 05:54 undefined 53 11.7 51 10.6 93 93 undefined N/A 29.81 1009 N/A 0.05 1.27
6:54 am 06:54 undefined 53 11.7 51 10.6 93 93 undefined N/A 29.81 1010 N/A 0.01 0.254
7:54 am 07:54 undefined 53 11.7 51 10.6 93 93 undefined N/A 29.82 1010 N/A 0.01 0.254
8:54 am 08:54 undefined 53 11.7 51 10.6 93 93 undefined N/A 29.8 1009 N/A 0.07 1.778
9:54 am 09:54 undefined 53 11.7 51 10.6 93 93 undefined N/A 29.79 1009 N/A 0.11 2.794
10:54 am 10:54 undefined 54 12.2 51 10.6 90 90 undefined N/A 29.77 1008 N/A 0.01 0.254
11:54 am 11:54 undefined 54 12.2 52 11.1 93 93 undefined N/A 29.76 1008 N/A 0.05 1.27
12:54 pm 12:54 undefined 54 12.2 51 10.6 90 90 undefined N/A 29.76 1008 N/A 0.34 8.636
1:54 pm 13:54 undefined 54 12.2 51 10.6 90 90 undefined N/A 29.78 1008 N/A 0.02 0.508
2:54 pm 14:54 undefined 54 12.2 50 10 87 87 undefined N/A 29.77 1008 N/A 0.02 0.508
3:54 pm 15:54 undefined 53 11.7 48 8.9 83 83 undefined N/A 29.78 1008 N/A 0 0
4:54 pm 16:54 undefined 53 11.7 48 8.9 83 83 undefined N/A 29.77 1008 N/A 0 0
5:54 pm 17:54 undefined 52 11.1 48 8.9 86 86 undefined N/A 29.79 1009 N/A 0 0
6:54 pm 18:54 undefined 52 11.1 47 8.3 83 83 undefined N/A 29.8 1009 N/A 0 0
7:54 pm 19:54 undefined 51 10.6 47 8.3 86 86 undefined N/A 29.81 1009 N/A 0 0
8:54 pm 20:54 undefined 50 10 47 8.3 89 89 undefined N/A 29.82 1010 N/A 0 0
9:54 pm 21:54 undefined 50 10 46 7.8 86 86 undefined N/A 29.83 1010 N/A 0 0
10:54 pm 22:54 undefined 49 9.4 46 7.8 90 90 undefined N/A 29.85 1011 N/A 0 0
11:54 pm 23:54 undefined 49 9.4 46 7.8 90 90 undefined N/A 29.85 1011 N/A 0 0

Powered by AerisWeather